TimeGMT,TemperatureF,Dew PointF,Humidity,Sea Level PressureIn,VisibilityMPH,Wind Direction,Wind SpeedMPH,Gust SpeedMPH,PrecipitationIn,Events,Conditions,WindDirDegrees,DateUTC
12:56 AM,72.9,65.8,79,30.90,10.0,West,13.8,-,N/A,,Overcast,260,2014-03-12 00:56:00
1:05 AM,73.4,64.4,73,29.99,10.0,West,12.7,-,N/A,,Overcast,260,2014-03-12 01:05:00
1:18 AM,71.6,66.2,83,29.99,10.0,West,17.3,28.8,N/A,,Mostly Cloudy,260,2014-03-12 01:18:00
1:39 AM,71.6,68.0,88,29.98,10.0,SW,10.4,-,N/A,,Overcast,230,2014-03-12 01:39:00
1:56 AM,72.9,65.8,79,30.89,10.0,SW,12.7,-,N/A,,Mostly Cloudy,230,2014-03-12 01:56:00
2:56 AM,72.9,65.8,79,30.89,10.0,SW,13.8,-,N/A,,Overcast,230,2014-03-12 02:56:00
3:56 AM,72.9,66.9,82,30.89,10.0,WSW,15.0,-,N/A,,Overcast,240,2014-03-12 03:56:00
4:56 AM,72.0,66.9,84,30.90,10.0,WSW,11.5,-,N/A,,Overcast,240,2014-03-12 04:56:00
5:56 AM,70.9,68.0,91,30.92,10.0,WSW,11.5,-,N/A,,Partly Cloudy,240,2014-03-12 05:56:00
6:56 AM,70.0,70.0,100,30.94,10.0,WSW,4.6,-,N/A,,Mostly Cloudy,250,2014-03-12 06:56:00
7:56 AM,70.0,68.9,96,30.96,10.0,West,8.1,-,N/A,,Overcast,260,2014-03-12 07:56:00
8:56 AM,70.0,68.9,96,30.97,10.0,West,9.2,-,N/A,,Mostly Cloudy,260,2014-03-12 08:56:00
9:56 AM,70.0,68.0,93,30.97,10.0,West,6.9,-,N/A,,Overcast,270,2014-03-12 09:56:00
10:56 AM,68.9,68.9,100,30.97,10.0,West,8.1,-,N/A,,Clear,260,2014-03-12 10:56:00
11:22 AM,69.8,69.8,100,30.05,10.0,West,9.2,-,N/A,,Mostly Cloudy,270,2014-03-12 11:22:00
11:47 AM,66.2,66.2,100,30.06,10.0,NNW,10.4,-,N/A,,Mostly Cloudy,340,2014-03-12 11:47:00
11:56 AM,66.2,66.2,100,30.06,10.0,NNW,9.2,-,N/A,,Scattered Clouds,340,2014-03-12 11:56:00
12:12 PM,64.4,64.4,100,30.06,10.0,NNW,10.4,-,N/A,,Mostly Cloudy,340,2014-03-12 12:12:00
12:56 PM,64.9,64.9,100,30.97,10.0,North,9.2,-,N/A,,Overcast,350,2014-03-12 12:56:00
1:21 PM,64.4,64.4,100,30.05,10.0,North,10.4,-,N/A,,Overcast,350,2014-03-12 13:21:00
1:56 PM,64.9,64.9,100,30.97,8.0,North,8.1,-,N/A,,Overcast,10,2014-03-12 13:56:00
2:33 PM,64.4,-9999,N/A,30.06,10.0,North,5.8,-,N/A,,Overcast,360,2014-03-12 14:33:00
2:42 PM,64.4,64.4,100,30.06,10.0,North,6.9,-,N/A,,Overcast,350,2014-03-12 14:42:00
2:56 PM,64.4,64.4,100,30.06,10.0,North,6.9,-,N/A,,Overcast,350,2014-03-12 14:56:00
3:04 PM,64.4,64.4,100,30.06,10.0,North,6.9,-,N/A,,Overcast,350,2014-03-12 15:04:00
3:29 PM,64.4,64.4,100,30.07,1.8,NNW,8.1,-,N/A,,Overcast,340,2014-03-12 15:29:00
3:39 PM,64.4,64.4,100,30.07,3.0,NNW,4.6,-,N/A,,Overcast,340,2014-03-12 15:39:00
3:56 PM,63.9,63.9,100,30.99,7.0,NNW,6.9,-,N/A,,Overcast,340,2014-03-12 15:56:00
4:46 PM,64.4,64.4,100,30.09,1.8,NNW,6.9,-,N/A,,Overcast,340,2014-03-12 16:46:00
4:56 PM,63.9,63.9,100,31.01,1.5,North,11.5,-,N/A,,Overcast,350,2014-03-12 16:56:00
5:01 PM,62.6,62.6,100,30.09,1.2,North,10.4,-,N/A,,Overcast,360,2014-03-12 17:01:00
5:09 PM,62.6,62.6,100,30.10,1.5,North,10.4,-,N/A,,Overcast,360,2014-03-12 17:09:00
5:21 PM,62.6,-9999,N/A,30.11,1.0,North,12.7,-,0.00,Rain,Light Rain,350,2014-03-12 17:21:00
5:42 PM,62.6,-9999,N/A,30.11,0.8,North,11.5,-,0.00,Rain,Light Rain,350,2014-03-12 17:42:00
5:56 PM,62.6,-9999,N/A,30.12,1.0,North,9.2,-,N/A,Rain,Light Rain,350,2014-03-12 17:56:00
6:06 PM,62.6,-9999,N/A,30.13,1.5,North,10.4,-,0.00,Rain,Light Rain,350,2014-03-12 18:06:00
6:15 PM,62.6,-9999,N/A,30.13,2.0,North,11.5,-,0.00,Rain,Light Rain,350,2014-03-12 18:15:00
6:23 PM,62.6,-9999,N/A,30.13,3.0,North,6.9,-,0.00,,Overcast,360,2014-03-12 18:23:00
6:32 PM,62.6,62.6,100,30.13,2.0,North,6.9,-,0.00,,Overcast,10,2014-03-12 18:32:00
6:45 PM,62.6,62.6,100,30.14,4.0,North,6.9,-,0.00,Rain,Light Rain,350,2014-03-12 18:45:00
6:56 PM,63.9,63.9,100,31.06,3.0,North,5.8,-,0.00,,Overcast,360,2014-03-12 18:56:00
7:56 PM,64.9,63.0,93,31.08,9.0,NNW,8.1,-,N/A,,Overcast,330,2014-03-12 19:56:00
8:56 PM,64.4,62.6,94,30.18,4.0,North,5.8,-,N/A,,Overcast,350,2014-03-12 20:56:00
9:56 PM,66.9,61.9,84,31.11,4.0,Calm,Calm,-,N/A,,Haze,0,2014-03-12 21:56:00
10:19 PM,66.2,62.6,88,30.19,2.0,North,5.8,-,N/A,,Mostly Cloudy,350,2014-03-12 22:19:00
10:26 PM,68.0,62.6,83,30.19,1.2,Calm,Calm,-,N/A,,Haze,0,2014-03-12 22:26:00
10:36 PM,66.2,64.4,94,30.19,2.5,North,6.9,-,N/A,,Mostly Cloudy,350,2014-03-12 22:36:00
10:43 PM,66.2,62.6,88,30.19,4.0,North,3.5,-,N/A,,Overcast,350,2014-03-12 22:43:00
10:56 PM,66.9,63.0,87,31.11,3.0,North,5.8,-,N/A,,Overcast,10,2014-03-12 22:56:00
11:56 PM,69.8,60.8,73,30.18,9.0,NNW,9.2,-,N/A,,Overcast,330,2014-03-12 23:56:00